Time,TemperatureF,DewpointF,PressureIn,WindDirection,WindDirectionDegrees,WindSpeedMPH,WindSpeedGustMPH,Humidity,HourlyPrecipIn,Conditions,Clouds,dailyrainin,SoftwareType,DateUTC
2013-02-22 00:02:00,28.0,15.0,30.29,NNW,345,2.0,5.0,57,0.00,,,0.00,,2013-02-22 05:02:00,
2013-02-22 00:12:00,28.0,15.0,30.29,NNW,345,2.0,5.0,57,0.00,,,0.00,,2013-02-22 05:12:00,
2013-02-22 00:22:00,28.0,15.0,30.29,North,6,2.0,5.0,57,0.00,,,0.00,,2013-02-22 05:22:00,
2013-02-22 00:32:00,27.0,14.0,30.30,North,353,1.0,4.0,57,0.00,,,0.00,,2013-02-22 05:32:00,
2013-02-22 00:42:00,27.0,15.0,30.28,NNE,13,1.0,4.0,59,0.00,,,0.00,,2013-02-22 05:42:00,
2013-02-22 00:52:00,27.0,15.0,30.28,NNE,13,1.0,4.0,59,0.00,,,0.00,,2013-02-22 05:52:00,
2013-02-22 01:01:00,26.0,14.0,30.30,North,359,0.0,2.0,60,0.00,,,0.00,,2013-02-22 06:01:00,
2013-02-22 01:12:00,26.0,14.0,30.29,NW,319,0.0,1.0,61,0.00,,,0.00,,2013-02-22 06:12:00,
2013-02-22 01:22:00,26.0,14.0,30.29,NW,319,0.0,1.0,61,0.00,,,0.00,,2013-02-22 06:22:00,
2013-02-22 01:32:00,26.0,14.0,30.29,North,351,2.0,5.0,61,0.00,,,0.00,,2013-02-22 06:32:00,
2013-02-22 01:42:00,26.0,14.0,30.29,North,351,2.0,5.0,61,0.00,,,0.00,,2013-02-22 06:42:00,
2013-02-22 01:52:00,25.0,14.0,30.30,NW,318,0.0,1.0,62,0.00,,,0.00,,2013-02-22 06:52:00,
2013-02-22 02:01:00,25.0,15.0,30.32,NW,308,1.0,2.0,64,0.00,,,0.00,,2013-02-22 07:01:00,
2013-02-22 02:11:00,24.0,14.0,30.31,NW,325,1.0,1.0,66,0.00,,,0.00,,2013-02-22 07:11:00,
2013-02-22 02:21:00,24.0,14.0,30.31,NW,325,1.0,1.0,66,0.00,,,0.00,,2013-02-22 07:21:00,
2013-02-22 02:31:00,24.0,14.0,30.31,NNW,348,0.0,2.0,66,0.00,,,0.00,,2013-02-22 07:31:00,
2013-02-22 02:42:00,25.0,15.0,30.30,North,354,2.0,4.0,64,0.00,,,0.00,,2013-02-22 07:42:00,
2013-02-22 02:52:00,25.0,15.0,30.30,North,354,2.0,4.0,64,0.00,,,0.00,,2013-02-22 07:52:00,
2013-02-22 03:01:00,25.0,15.0,30.29,North,6,2.0,4.0,65,0.00,,,0.00,,2013-02-22 08:01:00,
2013-02-22 03:11:00,25.0,15.0,30.29,North,350,3.0,5.0,65,0.00,,,0.00,,2013-02-22 08:11:00,
2013-02-22 03:21:00,25.0,15.0,30.29,North,350,3.0,5.0,65,0.00,,,0.00,,2013-02-22 08:21:00,
2013-02-22 03:31:00,25.0,15.0,30.29,NNE,28,1.0,4.0,64,0.00,,,0.00,,2013-02-22 08:31:00,
2013-02-22 03:42:00,25.0,15.0,30.29,NNE,28,1.0,4.0,64,0.00,,,0.00,,2013-02-22 08:42:00,
2013-02-22 03:52:00,25.0,15.0,30.30,North,355,3.0,5.0,64,0.00,,,0.00,,2013-02-22 08:52:00,
2013-02-22 04:03:00,24.0,14.0,30.31,NNW,328,2.0,5.0,64,0.00,,,0.00,,2013-02-22 09:03:00,
2013-02-22 04:11:00,24.0,14.0,30.32,NNW,329,1.0,3.0,64,0.00,,,0.00,,2013-02-22 09:11:00,
2013-02-22 04:21:00,24.0,14.0,30.32,NNW,329,1.0,3.0,64,0.00,,,0.00,,2013-02-22 09:21:00,
2013-02-22 04:32:00,24.0,14.0,30.31,North,357,1.0,3.0,65,0.00,,,0.00,,2013-02-22 09:32:00,
2013-02-22 04:42:00,24.0,14.0,30.31,North,358,2.0,4.0,65,0.00,,,0.00,,2013-02-22 09:42:00,
2013-02-22 04:52:00,24.0,14.0,30.31,North,358,2.0,4.0,65,0.00,,,0.00,,2013-02-22 09:52:00,
2013-02-22 05:01:00,24.0,14.0,30.34,NW,318,2.0,6.0,66,0.00,,,0.00,,2013-02-22 10:01:00,
2013-02-22 05:11:00,24.0,14.0,30.34,NW,308,1.0,3.0,66,0.00,,,0.00,,2013-02-22 10:11:00,
2013-02-22 05:21:00,24.0,14.0,30.34,NW,308,1.0,3.0,66,0.00,,,0.00,,2013-02-22 10:21:00,
2013-02-22 05:32:00,24.0,14.0,30.33,NNW,336,0.0,2.0,66,0.00,,,0.00,,2013-02-22 10:32:00,
2013-02-22 05:42:00,23.0,14.0,30.34,NW,307,0.0,1.0,68,0.00,,,0.00,,2013-02-22 10:42:00,
2013-02-22 05:52:00,23.0,14.0,30.34,NW,307,0.0,1.0,68,0.00,,,0.00,,2013-02-22 10:52:00,
2013-02-22 06:01:00,24.0,15.0,30.36,NNW,330,1.0,2.0,68,0.00,,,0.00,,2013-02-22 11:01:00,
2013-02-22 06:11:00,23.0,14.0,30.35,North,349,0.0,1.0,68,0.00,,,0.00,,2013-02-22 11:11:00,
2013-02-22 06:22:00,23.0,14.0,30.35,North,349,0.0,1.0,68,0.00,,,0.00,,2013-02-22 11:22:00,
2013-02-22 06:32:00,23.0,14.0,30.34,NNE,21,0.0,0.0,68,0.00,,,0.00,,2013-02-22 11:32:00,
2013-02-22 06:42:00,23.0,14.0,30.34,NNE,21,0.0,0.0,68,0.00,,,0.00,,2013-02-22 11:42:00,
2013-02-22 06:52:00,23.0,14.0,30.35,NW,304,0.0,1.0,69,0.00,,,0.00,,2013-02-22 11:52:00,
2013-02-22 07:02:00,24.0,15.0,30.36,North,349,0.0,2.0,69,0.00,,,0.00,,2013-02-22 12:02:00,
2013-02-22 07:11:00,24.0,15.0,30.36,North,349,0.0,2.0,69,0.00,,,0.00,,2013-02-22 12:11:00,
2013-02-22 07:22:00,23.0,15.0,30.35,North,10,0.0,0.0,70,0.00,,,0.00,,2013-02-22 12:22:00,
2013-02-22 07:32:00,24.0,16.0,30.35,NNE,27,1.0,2.0,70,0.00,,,0.00,,2013-02-22 12:32:00,
2013-02-22 07:42:00,24.0,16.0,30.35,NNE,27,1.0,2.0,70,0.00,,,0.00,,2013-02-22 12:42:00,
2013-02-22 07:52:00,23.0,15.0,30.35,NE,35,0.0,2.0,70,0.00,,,0.00,,2013-02-22 12:52:00,
2013-02-22 08:02:00,23.0,15.0,30.36,NE,43,1.0,2.0,70,0.00,,,0.00,,2013-02-22 13:02:00,
2013-02-22 08:11:00,23.0,15.0,30.36,NE,43,1.0,2.0,70,0.00,,,0.00,,2013-02-22 13:11:00,
2013-02-22 08:22:00,24.0,16.0,30.36,NNW,347,0.0,2.0,70,0.00,,,0.00,,2013-02-22 13:22:00,
2013-02-22 08:32:00,24.0,15.0,30.38,NE,38,0.0,2.0,69,0.00,,,0.00,,2013-02-22 13:32:00,
2013-02-22 08:42:00,24.0,15.0,30.38,NE,38,0.0,2.0,69,0.00,,,0.00,,2013-02-22 13:42:00,
2013-02-22 08:52:00,25.0,16.0,30.37,ENE,69,1.0,3.0,68,0.00,,,0.00,,2013-02-22 13:52:00,
2013-02-22 09:01:00,25.0,16.0,30.36,East,83,2.0,4.0,67,0.00,,,0.00,,2013-02-22 14:01:00,
2013-02-22 09:11:00,26.0,16.0,30.37,ENE,63,4.0,5.0,64,0.00,,,0.00,,2013-02-22 14:11:00,
2013-02-22 09:21:00,26.0,16.0,30.37,ENE,63,4.0,5.0,64,0.00,,,0.00,,2013-02-22 14:21:00,
2013-02-22 09:32:00,27.0,16.0,30.37,SE,129,3.0,5.0,62,0.00,,,0.00,,2013-02-22 14:32:00,
2013-02-22 09:42:00,27.0,15.0,30.36,SE,131,3.0,4.0,61,0.00,,,0.00,,2013-02-22 14:42:00,
2013-02-22 09:53:00,27.0,15.0,30.36,SE,131,3.0,4.0,61,0.00,,,0.00,,2013-02-22 14:53:00,
2013-02-22 10:01:00,27.0,15.0,30.37,ESE,106,4.0,5.0,60,0.00,,,0.00,,2013-02-22 15:01:00,
2013-02-22 10:11:00,28.0,16.0,30.37,SE,129,2.0,4.0,60,0.00,,,0.00,,2013-02-22 15:11:00,
2013-02-22 10:22:00,28.0,16.0,30.37,SE,129,2.0,4.0,60,0.00,,,0.00,,2013-02-22 15:22:00,
2013-02-22 10:32:00,28.0,16.0,30.36,SE,126,1.0,3.0,60,0.00,,,0.00,,2013-02-22 15:32:00,
2013-02-22 10:42:00,28.0,16.0,30.36,SE,126,1.0,3.0,60,0.00,,,0.00,,2013-02-22 15:42:00,
2013-02-22 10:52:00,29.0,16.0,30.35,SE,136,3.0,5.0,58,0.00,,,0.00,,2013-02-22 15:52:00,
2013-02-22 11:01:00,29.0,16.0,30.35,SE,138,3.0,4.0,58,0.00,,,0.00,,2013-02-22 16:01:00,
2013-02-22 11:12:00,29.0,16.0,30.34,SE,137,4.0,6.0,58,0.00,,,0.00,,2013-02-22 16:12:00,
2013-02-22 11:22:00,29.0,16.0,30.34,SE,137,4.0,6.0,58,0.00,,,0.00,,2013-02-22 16:22:00,
2013-02-22 11:32:00,30.0,17.0,30.34,ESE,105,6.0,8.0,57,0.00,,,0.00,,2013-02-22 16:32:00,
2013-02-22 11:42:00,30.0,17.0,30.34,ESE,105,6.0,8.0,57,0.00,,,0.00,,2013-02-22 16:42:00,
2013-02-22 11:52:00,30.0,17.0,30.33,SE,125,4.0,5.0,57,0.00,,,0.00,,2013-02-22 16:52:00,
2013-02-22 12:01:00,31.0,17.0,30.34,SE,132,3.0,6.0,56,0.00,,,0.00,,2013-02-22 17:01:00,
2013-02-22 12:11:00,31.0,17.0,30.33,ESE,118,5.0,7.0,56,0.00,,,0.00,,2013-02-22 17:11:00,
2013-02-22 12:21:00,31.0,17.0,30.33,ESE,118,5.0,7.0,56,0.00,,,0.00,,2013-02-22 17:21:00,
2013-02-22 12:32:00,32.0,19.0,30.33,ESE,114,3.0,6.0,57,0.00,,,0.00,,2013-02-22 17:32:00,
2013-02-22 12:42:00,32.0,19.0,30.33,ESE,114,3.0,6.0,57,0.00,,,0.00,,2013-02-22 17:42:00,
2013-02-22 12:52:00,32.0,18.0,30.33,SSE,147,4.0,7.0,56,0.00,,,0.00,,2013-02-22 17:52:00,
2013-02-22 13:02:00,32.0,18.0,30.32,SE,140,4.0,5.0,56,0.00,,,0.00,,2013-02-22 18:02:00,
2013-02-22 13:12:00,33.0,19.0,30.32,South,169,4.0,6.0,56,0.00,,,0.00,,2013-02-22 18:12:00,
2013-02-22 13:22:00,33.0,19.0,30.32,South,169,4.0,6.0,56,0.00,,,0.00,,2013-02-22 18:22:00,
2013-02-22 13:32:00,33.0,19.0,30.31,SE,135,3.0,5.0,56,0.00,,,0.00,,2013-02-22 18:32:00,
2013-02-22 13:42:00,33.0,19.0,30.31,SE,135,3.0,5.0,56,0.00,,,0.00,,2013-02-22 18:42:00,
2013-02-22 13:52:00,32.0,19.0,30.30,SSE,152,4.0,6.0,57,0.00,,,0.00,,2013-02-22 18:52:00,
2013-02-22 14:01:00,33.0,19.0,30.30,SSE,167,2.0,5.0,57,0.00,,,0.00,,2013-02-22 19:01:00,
2013-02-22 14:11:00,33.0,19.0,30.30,SSE,168,4.0,6.0,57,0.00,,,0.00,,2013-02-22 19:11:00,
2013-02-22 14:21:00,33.0,19.0,30.30,SSE,168,4.0,6.0,57,0.00,,,0.00,,2013-02-22 19:21:00,
2013-02-22 14:31:00,33.0,20.0,30.30,SSE,157,4.0,7.0,58,0.00,,,0.00,,2013-02-22 19:31:00,
2013-02-22 14:41:00,33.0,20.0,30.29,South,169,4.0,6.0,58,0.00,,,0.00,,2013-02-22 19:41:00,
2013-02-22 14:52:00,33.0,20.0,30.29,South,169,4.0,6.0,58,0.00,,,0.00,,2013-02-22 19:52:00,
2013-02-22 15:01:00,33.0,20.0,30.29,South,170,4.0,6.0,58,0.00,,,0.00,,2013-02-22 20:01:00,
2013-02-22 15:11:00,33.0,20.0,30.29,South,170,4.0,6.0,58,0.00,,,0.00,,2013-02-22 20:11:00,
2013-02-22 15:21:00,33.0,21.0,30.29,SSE,160,4.0,5.0,60,0.00,,,0.00,,2013-02-22 20:21:00,
2013-02-22 15:32:00,33.0,20.0,30.29,SSE,151,3.0,6.0,59,0.00,,,0.00,,2013-02-22 20:32:00,
2013-02-22 15:42:00,33.0,20.0,30.29,SSE,151,3.0,6.0,59,0.00,,,0.00,,2013-02-22 20:42:00,
2013-02-22 15:52:00,33.0,21.0,30.29,SSE,167,3.0,4.0,60,0.00,,,0.00,,2013-02-22 20:52:00,
2013-02-22 16:01:00,33.0,21.0,30.28,SSE,160,4.0,5.0,61,0.00,,,0.00,,2013-02-22 21:01:00,
2013-02-22 16:11:00,33.0,21.0,30.28,South,179,4.0,5.0,62,0.00,,,0.00,,2013-02-22 21:11:00,
2013-02-22 16:21:00,33.0,21.0,30.28,South,179,4.0,5.0,62,0.00,,,0.00,,2013-02-22 21:21:00,
2013-02-22 16:32:00,33.0,22.0,30.28,South,175,4.0,7.0,64,0.00,,,0.00,,2013-02-22 21:32:00,
2013-02-22 16:42:00,33.0,23.0,30.29,SSE,149,3.0,5.0,65,0.00,,,0.00,,2013-02-22 21:42:00,
2013-02-22 16:52:00,33.0,23.0,30.29,SSE,149,3.0,5.0,65,0.00,,,0.00,,2013-02-22 21:52:00,
2013-02-22 17:01:00,33.0,23.0,30.28,South,170,3.0,6.0,66,0.00,,,0.00,,2013-02-22 22:01:00,
2013-02-22 17:11:00,33.0,23.0,30.28,South,170,3.0,6.0,66,0.00,,,0.00,,2013-02-22 22:11:00,
2013-02-22 17:21:00,32.0,24.0,30.28,South,171,2.0,2.0,71,0.00,,,0.00,,2013-02-22 22:21:00,
2013-02-22 17:32:00,32.0,24.0,30.28,South,174,2.0,3.0,72,0.00,,,0.00,,2013-02-22 22:32:00,
2013-02-22 17:42:00,32.0,24.0,30.27,SSE,163,2.0,2.0,73,0.00,,,0.00,,2013-02-22 22:42:00,
2013-02-22 17:52:00,32.0,24.0,30.27,SSE,163,2.0,2.0,73,0.00,,,0.00,,2013-02-22 22:52:00,
2013-02-22 18:01:00,32.0,26.0,30.28,SSE,163,1.0,2.0,78,0.00,,,0.00,,2013-02-22 23:01:00,
2013-02-22 18:11:00,32.0,26.0,30.28,SSE,163,1.0,2.0,78,0.00,,,0.00,,2013-02-22 23:11:00,
2013-02-22 18:21:00,32.0,26.0,30.27,South,176,2.0,3.0,79,0.00,,,0.00,,2013-02-22 23:21:00,
2013-02-22 18:32:00,32.0,26.0,30.27,South,173,2.0,3.0,79,0.00,,,0.00,,2013-02-22 23:32:00,
2013-02-22 18:42:00,32.0,26.0,30.27,South,173,2.0,3.0,79,0.00,,,0.00,,2013-02-22 23:42:00,
2013-02-22 18:52:00,32.0,26.0,30.27,SSE,159,2.0,3.0,79,0.00,,,0.00,,2013-02-22 23:52:00,
2013-02-22 19:02:00,32.0,26.0,30.28,SE,141,2.0,3.0,79,0.00,,,0.00,,2013-02-23 00:02:00,
2013-02-22 19:11:00,32.0,26.0,30.28,SSE,163,2.0,3.0,79,0.00,,,0.00,,2013-02-23 00:11:00,
2013-02-22 19:21:00,32.0,26.0,30.28,SSE,163,2.0,3.0,79,0.00,,,0.00,,2013-02-23 00:21:00,
2013-02-22 19:32:00,32.0,27.0,30.29,South,184,1.0,2.0,80,0.00,,,0.00,,2013-02-23 00:32:00,
2013-02-22 19:42:00,32.0,27.0,30.29,South,184,1.0,2.0,80,0.00,,,0.00,,2013-02-23 00:42:00,
2013-02-22 19:52:00,32.0,26.0,30.29,South,169,1.0,2.0,79,0.00,,,0.00,,2013-02-23 00:52:00,
2013-02-22 20:01:00,32.0,26.0,30.29,SSE,166,1.0,4.0,79,0.00,,,0.00,,2013-02-23 01:01:00,
2013-02-22 20:11:00,32.0,26.0,30.29,SSE,166,1.0,4.0,79,0.00,,,0.00,,2013-02-23 01:11:00,
2013-02-22 20:21:00,32.0,26.0,30.28,SSE,156,2.0,2.0,79,0.00,,,0.00,,2013-02-23 01:21:00,
2013-02-22 20:32:00,32.0,27.0,30.28,SE,144,2.0,4.0,80,0.00,,,0.00,,2013-02-23 01:32:00,
2013-02-22 20:42:00,32.0,27.0,30.28,SE,144,2.0,4.0,80,0.00,,,0.00,,2013-02-23 01:42:00,
2013-02-22 20:52:00,32.0,27.0,30.27,SE,136,2.0,2.0,82,0.00,,,0.00,,2013-02-23 01:52:00,
2013-02-22 21:01:00,31.0,26.0,30.26,SE,132,3.0,6.0,82,0.00,,,0.00,,2013-02-23 02:01:00,
2013-02-22 21:11:00,32.0,27.0,30.26,SE,143,3.0,5.0,83,0.00,,,0.00,,2013-02-23 02:11:00,
2013-02-22 21:21:00,32.0,27.0,30.26,SE,143,3.0,5.0,83,0.00,,,0.00,,2013-02-23 02:21:00,
2013-02-22 21:32:00,32.0,27.0,30.25,SE,142,3.0,5.0,83,0.00,,,0.00,,2013-02-23 02:32:00,
2013-02-22 21:42:00,32.0,27.0,30.25,SE,142,3.0,5.0,83,0.00,,,0.00,,2013-02-23 02:42:00,
2013-02-22 21:52:00,32.0,28.0,30.25,SE,139,4.0,6.0,84,0.00,,,0.00,,2013-02-23 02:52:00,
2013-02-22 22:01:00,32.0,28.0,30.26,SSE,147,3.0,5.0,84,0.00,,,0.00,,2013-02-23 03:01:00,
2013-02-22 22:11:00,32.0,28.0,30.26,SSE,147,2.0,4.0,85,0.00,,,0.00,,2013-02-23 03:11:00,
2013-02-22 22:21:00,32.0,28.0,30.26,SSE,147,2.0,4.0,85,0.00,,,0.00,,2013-02-23 03:21:00,
2013-02-22 22:32:00,32.0,28.0,30.25,SE,135,3.0,4.0,84,0.00,,,0.00,,2013-02-23 03:32:00,
2013-02-22 22:42:00,32.0,28.0,30.25,SE,135,3.0,4.0,84,0.00,,,0.00,,2013-02-23 03:42:00,
2013-02-22 22:52:00,32.0,28.0,30.25,ESE,116,3.0,5.0,85,0.00,,,0.00,,2013-02-23 03:52:00,
2013-02-22 23:01:00,32.0,28.0,30.24,SE,133,2.0,3.0,85,0.00,,,0.00,,2013-02-23 04:01:00,
2013-02-22 23:11:00,32.0,28.0,30.24,SE,132,2.0,4.0,85,0.00,,,0.00,,2013-02-23 04:11:00,
2013-02-22 23:21:00,32.0,28.0,30.24,SE,132,2.0,4.0,85,0.00,,,0.00,,2013-02-23 04:21:00,
2013-02-22 23:32:00,32.0,28.0,30.23,SE,143,2.0,3.0,85,0.00,,,0.00,,2013-02-23 04:32:00,
2013-02-22 23:41:00,32.0,28.0,30.23,SE,143,2.0,3.0,85,0.00,,,0.00,,2013-02-23 04:41:00,
2013-02-22 23:52:00,32.0,28.0,30.23,SE,124,2.0,4.0,86,0.00,,,0.00,,2013-02-23 04:52:00,